sat.trackr.live / text

‹ back to catalog

STARLINK-5269

NORAD 54161 · 2022-141E

PAYLOAD ACTIVE UNKNOWN

§ Identity

Operator
Country
US
Launch date
2022-10-28
Launch site
AFWTR
Launch vehicle
Mass (kg)
RCS (m²)

Purposes: comms

External: N2YO · Heavens-Above · Gunter

§ Orbital elements

Epoch: 2026-09-20T13:11:03.034752Z

Period
94.01 min
Inclination
53.1597°
Eccentricity
0.0001247
Mean motion
15.31704873 rev/d
Perigee alt
469.9 km
Apogee alt
471.6 km
Semi-major
6,848.9 km
B*
3.2448e-5
RAAN
207.5454°
Arg perigee
89.5797°
Mean anomaly
270.5348°
Rev number
21,529

§ Raw data

STARLINK-52691 54161U 22141E   26263.54934068  .00000642  00000+0  32448-4 0  99912 54161  53.1597 207.5454 0001247  89.5797 270.5348 15.31704873215292

JSON: /api/v1/satellites/54161 · /tle

For live sub-satellite position, see the globe view (requires WebGL).

§ Visibility from observer

Set your observer location to see the next 7 days of passes ≥ 10°. The values pass through the URL so the page stays shareable.

No JS? Fill the form by hand. The geolocation button needs JavaScript.